{"data":{"norad_id":61710,"intl_designator":"2024-196D","name":"STARLINK-32404","alt_names":[],"object_type":"PAYLOAD","status":"ACTIVE","operator":null,"country":"US","launch_date":"2024-10-30","launch_site_code":"AFETR","launch_vehicle":null,"mission":null,"orbit_class":"UNKNOWN","rcs_meters":null,"size_class":null,"mass_kg":null,"dimensions":null,"purposes":["comms"],"wikipedia_slug":null,"has_3d_model":false,"image_url":null,"decayed_at":null,"tle_current":{"epoch":"2026-09-20T06:10:08.923008Z","epoch_age_seconds":209898,"freshness":"STALE","line1":"1 61710U 24196D   26263.25704772 -.00001247  00000+0 -25803-4 0  9997","line2":"2 61710  53.1575 274.9081 0000734  46.0584 314.0479 15.34390677106982","mean_motion":15.34390677,"eccentricity":7.34e-5,"inclination_deg":53.1575,"raan_deg":274.9081,"arg_perigee_deg":46.0584,"mean_anomaly_deg":314.0479,"bstar":-2.5803e-5,"rev_number":10698,"period_min":93.848328302897,"perigee_km":462.22883056059,"apogee_km":463.23306997569,"semimajor_km":6840.8679502681,"source":"CELESTRAK","updated_at":"2026-09-22T09:00:49.410325Z"}}}